Location: Pontbriand
(46.1542°N, 71.2542°W)
Time: 22:00:05
(UTC+00:00)

Envisat - Pass Details

Date: 01 December 2021
Orbit: 764 x 766 km, 98.2° (Epoch: 19 January)

Event Time Altitude Azimuth Distance (km) Brightness Sun altitude
Rises 22:01:01 0° 205° (SSW) 3,220 7.0 -10.2°
Reaches altitude 10° 22:03:53 10° 221° (SW) 2,299 6.5 -10.6°
Maximum altitude 22:07:37 20° 269° (W) 1,700 5.8 -11.2°
Drops below altitude 10° 22:11:22 10° 317° (NW) 2,313 5.8 -11.8°
Sets 22:14:16 0° 333° (NNW) 3,244 6.3 -12.3°
